Voltar ao catálogo

PSLV R/B

LostLEO
NORAD 40937·ROCKET BODY·🇮🇳 India

Lançado Sep 28, 2015 de Satish Dhawan Space Centre

Loading…

Próximas Passagens (próximas 24 horas)

TLE

ObsoletoSource: Space-Track

Época: Jan 5, 2024, 13:54 UTC

1 40937U 15052H   24005.57953228  .00002185  00000-0  17696-3 0  9996
2 40937   5.9553 291.4476 0029383 297.1563  62.5571 14.83150793448613

Acompanhe PSLV R/B em tempo real com AllMySat

Download on the App Store